Weather History for KO22 - April, 2014

Change the Weather History Date:

Wednesday, April 23, 2014

  Actual Average (KMOD) Record (KMOD)
Temperature  
Mean Temperature 50 °F -  
Max Temperature 66 °F 77 °F 95 °F (1946)
Min Temperature 35 °F 51 °F 37 °F (1932)
Degree Days  
Heating Degree Days 14 3  
Month to date heating degree days 111  
Since 1 July heating degree days 2116  
Cooling Degree Days 0 2  
Month to date cooling degree days 23  
Year to date cooling degree days 28  
Moisture  
Dew Point 35 °F    
Average Humidity 55    
Maximum Humidity 87    
Minimum Humidity 32    
Precipitation  
Precipitation 0.00 in 0.02 in 0.70 in (1988)
Month to date precipitation 0.78  
Year to date precipitation 7.81  
Snow  
Snow 0.00 in - - ()
Month to date snowfall  
Since 1 July snowfall  
Snow Depth -    
Sea Level Pressure  
Sea Level Pressure 30.05 in    
Wind  
Wind Speed 3 mph (WNW)    
Max Wind Speed 12 mph    
Max Gust Speed 18 mph    
Visibility 10 miles    
Events      
T = Trace of Precipitation, MM = Missing Value Source: NWS Daily Summary

Daily Weather History Graph

Daily Weather History Graph

Search for Another Location

Airport or City:

Trip Planner

Search our weather history database for the weather conditions in past years. The results will help you decide how hot, cold, wet, or windy it might be!

Date:

Astronomy

Apr. 23, 2014 Rise Set
Actual Time 6:15 AM PDT 7:45 PM PDT
Civil Twilight 5:47 AM PDT 8:13 PM PDT
Nautical Twilight 5:14 AM PDT 8:46 PM PDT
Astronomical Twilight 4:39 AM PDT 9:21 PM PDT
Moon 2:44 AM PDT (4/23) 2:04 PM PDT (4/23)
Length of Visible Light 14h 25m
Length of Day
13h 30m
Waning Crescent, 34% of the Moon is Illuminated
Apr 23
Waning Crescent
Apr 28
New
May 6
First Quarter
May 14
Full
May 21
Last Quarter

Hourly Weather History & Observations

Time (PDT) Temp. Windchill Dew Point Humidity Pressure Visibility Wind Dir Wind Speed Gust Speed Precip Events Conditions
12:15 AM 44.6 °F - 37.4 °F 76% 30.05 in 10.0 mi Calm Calm - N/A   Clear
12:35 AM 44.6 °F 43.1 °F 37.4 °F 76% 30.05 in 10.0 mi NNW 3.5 mph - N/A   Mostly Cloudy
12:55 AM 44.6 °F - 37.4 °F 76% 30.05 in 10.0 mi Calm Calm - N/A   Mostly Cloudy
1:15 AM 42.8 °F - 37.4 °F 81% 30.04 in 10.0 mi Calm Calm - N/A   Overcast
1:55 AM 41.0 °F 39.0 °F 35.6 °F 81% 30.03 in 10.0 mi NNW 3.5 mph - N/A   Partly Cloudy
2:15 AM 41.0 °F - 35.6 °F 81% 30.03 in 10.0 mi Calm Calm - N/A   Clear
2:35 AM 39.2 °F - 35.6 °F 87% 30.03 in 10.0 mi Calm Calm - N/A   Clear
2:55 AM 39.2 °F - 35.6 °F 87% 30.02 in 10.0 mi Calm Calm - N/A   Clear
3:15 AM 37.4 °F - 33.8 °F 87% 30.02 in 10.0 mi Calm Calm - N/A   Clear
3:35 AM 37.4 °F - 33.8 °F 87% 30.03 in 10.0 mi Calm Calm - N/A   Clear
3:55 AM 37.4 °F - 32.0 °F 81% 30.03 in 10.0 mi Calm Calm - N/A   Clear
4:15 AM 37.4 °F - 33.8 °F 87% 30.03 in 10.0 mi Calm Calm - N/A   Clear
4:35 AM 35.6 °F - 32.0 °F 87% 30.03 in 10.0 mi Calm Calm - N/A   Clear
4:55 AM 37.4 °F - 33.8 °F 87% 30.03 in 10.0 mi Calm Calm - N/A   Clear
5:15 AM 37.4 °F - 32.0 °F 81% 30.03 in 10.0 mi Calm Calm - N/A   Clear
5:35 AM 37.4 °F - 32.0 °F 81% 30.04 in 10.0 mi Calm Calm - N/A   Clear
5:55 AM 35.6 °F - 32.0 °F 87% 30.04 in 10.0 mi Calm Calm - N/A   Clear
6:15 AM 35.6 °F - 32.0 °F 87% 30.04 in 10.0 mi Calm Calm - N/A   Clear
6:35 AM 35.6 °F - 32.0 °F 87% 30.05 in 10.0 mi Calm Calm - N/A   Clear
6:55 AM 39.2 °F - 33.8 °F 81% 30.05 in 10.0 mi Calm Calm - N/A   Clear
7:15 AM 44.6 °F - 33.8 °F 66% 30.05 in 10.0 mi Calm Calm - N/A   Clear
7:35 AM 46.4 °F - 32.0 °F 57% 30.06 in 10.0 mi Calm Calm - N/A   Clear
7:55 AM 48.2 °F - 35.6 °F 62% 30.06 in 10.0 mi Calm Calm - N/A   Clear
8:15 AM 50.0 °F - 32.0 °F 50% 30.06 in 10.0 mi NNW 3.5 mph - N/A   Clear
8:35 AM 53.6 °F - 32.0 °F 44% 30.06 in 10.0 mi NNW 3.5 mph - N/A   Clear
8:55 AM 53.6 °F - 32.0 °F 44% 30.06 in 10.0 mi NW 4.6 mph - N/A   Clear
9:15 AM 55.4 °F - 32.0 °F 41% 30.06 in 10.0 mi WNW 6.9 mph - N/A   Clear
9:55 AM 57.2 °F - 37.4 °F 48% 30.07 in 10.0 mi West 6.9 mph - N/A   Clear
10:15 AM 59.0 °F - 35.6 °F 42% 30.07 in 10.0 mi West 9.2 mph - N/A   Clear
10:35 AM 59.0 °F - 35.6 °F 42% 30.08 in 10.0 mi West 10.4 mph - N/A   Clear
10:55 AM 60.8 °F - 35.6 °F 39% 30.07 in 10.0 mi WSW 8.1 mph - N/A   Clear
11:15 AM 62.6 °F - 37.4 °F 39% 30.07 in 10.0 mi WSW 9.2 mph - N/A   Clear
11:35 AM 62.6 °F - 37.4 °F 39% 30.07 in 10.0 mi West 8.1 mph - N/A   Clear
11:55 AM 64.4 °F - 39.2 °F 40% 30.07 in 10.0 mi West 9.2 mph - N/A   Clear
12:15 PM 62.6 °F - 39.2 °F 42% 30.06 in 10.0 mi West 9.2 mph - N/A   Clear
12:55 PM 64.4 °F - 39.2 °F 40% 30.06 in 10.0 mi West 8.1 mph - N/A   Clear
1:15 PM 64.4 °F - 37.4 °F 37% 30.06 in 10.0 mi West 10.4 mph - N/A   Clear
1:35 PM 66.2 °F - 37.4 °F 35% 30.06 in 10.0 mi West 9.2 mph - N/A   Clear
1:55 PM 66.2 °F - 39.2 °F 37% 30.06 in 10.0 mi West 11.5 mph - N/A   Clear
2:15 PM 66.2 °F - 37.4 °F 35% 30.06 in 10.0 mi WSW 8.1 mph 18.4 mph N/A   Clear
2:35 PM 66.2 °F - 37.4 °F 35% 30.06 in 10.0 mi WSW 10.4 mph - N/A   Clear
2:55 PM 66.2 °F - 37.4 °F 35% 30.06 in 10.0 mi West 11.5 mph 17.3 mph N/A   Clear
3:15 PM 66.2 °F - 37.4 °F 35% 30.05 in 10.0 mi West 9.2 mph 17.3 mph N/A   Clear
3:35 PM 66.2 °F - 35.6 °F 32% 30.05 in 10.0 mi West 11.5 mph 16.1 mph N/A   Clear
3:55 PM 66.2 °F - 35.6 °F 32% 30.05 in 10.0 mi NW 11.5 mph - N/A   Clear
4:15 PM 66.2 °F - 35.6 °F 32% 30.04 in 10.0 mi West 9.2 mph - N/A   Clear
4:35 PM 64.4 °F - 35.6 °F 34% 30.05 in 10.0 mi West 8.1 mph - N/A   Clear
4:55 PM 64.4 °F - 33.8 °F 32% 30.05 in 10.0 mi West 8.1 mph - N/A   Clear
5:15 PM 64.4 °F - 33.8 °F 32% 30.05 in 10.0 mi WNW 9.2 mph - N/A   Clear
5:35 PM 62.6 °F - 33.8 °F 34% 30.04 in 10.0 mi West 9.2 mph - N/A   Clear
5:55 PM 62.6 °F - 33.8 °F 34% 30.04 in 10.0 mi West 6.9 mph - N/A   Clear
6:15 PM 62.6 °F - 33.8 °F 34% 30.04 in 10.0 mi West 5.8 mph - N/A   Clear
6:35 PM 60.8 °F - 33.8 °F 36% 30.04 in 10.0 mi WNW 8.1 mph - N/A   Clear
6:55 PM 59.0 °F - 32.0 °F 36% 30.04 in 10.0 mi West 4.6 mph - N/A   Clear
7:15 PM 57.2 °F - 32.0 °F 38% 30.05 in 10.0 mi WNW 8.1 mph - N/A   Clear
7:35 PM 55.4 °F - 32.0 °F 41% 30.06 in 10.0 mi WNW 6.9 mph - N/A   Clear
7:55 PM 55.4 °F - 32.0 °F 41% 30.06 in 10.0 mi NW 5.8 mph - N/A   Clear
8:15 PM 53.6 °F - 32.0 °F 44% 30.07 in 10.0 mi NW 3.5 mph - N/A   Clear
8:35 PM 53.6 °F - 32.0 °F 44% 30.07 in 10.0 mi NNW 3.5 mph - N/A   Clear
8:55 PM 50.0 °F - 32.0 °F 50% 30.07 in 10.0 mi Calm Calm - N/A   Clear
9:15 PM 50.0 °F - 32.0 °F 50% 30.07 in 10.0 mi NNW 3.5 mph - N/A   Clear
9:35 PM 50.0 °F - 32.0 °F 50% 30.07 in 10.0 mi NNW 3.5 mph - N/A   Clear
9:55 PM 48.2 °F - 32.0 °F 54% 30.07 in 10.0 mi Calm Calm - N/A   Clear
10:15 PM 48.2 °F - 33.8 °F 58% 30.06 in 10.0 mi Calm Calm - N/A   Clear
10:35 PM 48.2 °F - 32.0 °F 54% 30.06 in 10.0 mi West 3.5 mph - N/A   Clear
10:55 PM 48.2 °F - 33.8 °F 58% 30.06 in 10.0 mi Calm Calm - N/A   Clear
11:15 PM 46.4 °F - 35.6 °F 66% 30.06 in 10.0 mi Calm Calm - N/A   Clear
11:35 PM 44.6 °F - 35.6 °F 71% 30.06 in 10.0 mi Calm Calm - N/A   Clear
11:55 PM 44.6 °F - 35.6 °F 71% 30.06 in 10.0 mi Calm Calm - N/A   Clear